EZY37HW EGKK-LXGB

Flight info

Callsign EZY37HW
Flight time N/A
Altitude 35000
Route IMVUR N63 SAM M195 MARUK N621 LELNA DCT NOVAN DCT DELOG/N0440F370 DCT CRISA DCT VULPE DCT MAR N864 PIMOS
Aircraft A320/M-SDE2E3FGHIJ1RWXYZ/LB1

Departure

Time N/A
Airport London Gatwick Airport (EGKK)

Arrival

Time 2026-04-30 18:24
Airport Gibraltar Airport (LXGB)
Time Latitude Longitude Altitude Speed Heading
2026-04-30 17:39 40.27175 -4.42474 35072 ft 429 kts 185°
2026-04-30 17:42 39.97481 -4.45462 35056 ft 429 kts 185°
2026-04-30 17:43 39.82662 -4.46943 35058 ft 427 kts 185°
2026-04-30 17:44 39.64908 -4.48707 35060 ft 426 kts 185°
2026-04-30 17:47 39.38347 -4.51319 35065 ft 426 kts 185°
2026-04-30 17:48 39.17779 -4.53334 35065 ft 423 kts 186°
2026-04-30 17:50 38.94315 -4.55663 35058 ft 423 kts 188°
2026-04-30 17:52 38.76888 -4.59205 35054 ft 421 kts 191°
2026-04-30 17:54 38.50945 -4.64573 35058 ft 420 kts 191°
2026-04-30 17:56 38.27919 -4.69313 35060 ft 418 kts 190°
2026-04-30 17:58 38.10704 -4.72835 35054 ft 418 kts 191°
2026-04-30 18:00 37.87707 -4.77512 35038 ft 418 kts 191°
2026-04-30 18:01 37.73364 -4.80415 35031 ft 416 kts 190°
2026-04-30 18:02 37.56235 -4.83872 35030 ft 416 kts 191°
2026-04-30 18:03 37.47708 -4.85586 33629 ft 420 kts 191°
2026-04-30 18:04 37.38995 -4.87329 31349 ft 417 kts 191°
2026-04-30 18:05 37.27802 -4.89564 29641 ft 399 kts 191°
2026-04-30 18:06 37.17058 -4.91708 27050 ft 386 kts 192°
2026-04-30 18:07 37.06626 -4.93699 24429 ft 376 kts 187°
2026-04-30 18:08 36.98836 -4.93668 22504 ft 370 kts 180°
2026-04-30 18:09 36.88710 -4.93136 20305 ft 361 kts 179°
2026-04-30 18:10 36.78795 -4.92630 18351 ft 352 kts 179°
2026-04-30 18:11 36.69164 -4.92134 16118 ft 342 kts 179°
2026-04-30 18:11 36.62103 -4.91774 14607 ft 334 kts 179°
2026-04-30 18:12 36.55213 -4.91423 13150 ft 327 kts 179°
2026-04-30 18:13 36.50718 -4.91194 12150 ft 324 kts 179°
2026-04-30 18:13 36.44814 -4.90891 10672 ft 312 kts 179°
2026-04-30 18:14 36.40058 -4.90644 9731 ft 273 kts 179°
2026-04-30 18:15 36.34598 -4.90360 8651 ft 257 kts 178°
2026-04-30 18:15 36.29250 -4.90085 7636 ft 257 kts 178°
2026-04-30 18:16 36.25674 -4.89899 6977 ft 255 kts 178°
2026-04-30 18:16 36.22134 -4.89720 6340 ft 254 kts 178°
2026-04-30 18:17 36.20370 -4.89630 6024 ft 253 kts 178°
2026-04-30 18:17 36.18612 -4.89550 5702 ft 253 kts 181°
2026-04-30 18:17 36.15649 -4.91456 5026 ft 249 kts 238°
2026-04-30 18:18 36.15050 -4.93431 4704 ft 247 kts 265°
2026-04-30 18:18 36.15045 -4.95541 4409 ft 246 kts 272°
2026-04-30 18:18 36.15105 -4.97648 4106 ft 244 kts 272°
2026-04-30 18:18 36.15158 -4.99744 3801 ft 243 kts 272°
2026-04-30 18:19 36.15202 -5.01828 3503 ft 242 kts 271°
2026-04-30 18:19 36.15238 -5.03885 3303 ft 233 kts 271°
2026-04-30 18:19 36.15269 -5.05854 3280 ft 222 kts 271°
2026-04-30 18:19 36.15295 -5.07705 3251 ft 208 kts 271°
2026-04-30 18:20 36.15319 -5.09452 3224 ft 201 kts 271°
2026-04-30 18:20 36.15343 -5.11165 3184 ft 201 kts 271°
2026-04-30 18:20 36.15365 -5.12895 3065 ft 201 kts 271°
2026-04-30 18:20 36.15387 -5.14628 2930 ft 200 kts 271°
2026-04-30 18:21 36.15408 -5.16333 2781 ft 200 kts 270°
2026-04-30 18:21 36.15430 -5.18056 2499 ft 202 kts 270°
2026-04-30 18:21 36.15451 -5.19808 2204 ft 202 kts 270°
2026-04-30 18:21 36.15472 -5.21527 1931 ft 202 kts 270°
2026-04-30 18:22 36.15494 -5.23257 1672 ft 200 kts 270°
2026-04-30 18:22 36.15429 -5.26357 1575 ft 160 kts 266°
2026-04-30 18:22 36.15381 -5.27699 1306 ft 151 kts 266°
2026-04-30 18:23 36.15335 -5.28993 927 ft 148 kts 266°
2026-04-30 18:23 36.15291 -5.30215 656 ft 138 kts 265°
2026-04-30 18:23 36.15252 -5.31363 450 ft 131 kts 265°
2026-04-30 18:23 36.15203 -5.32489 283 ft 131 kts 264°
2026-04-30 18:24 36.15126 -5.34716 18 ft 110 kts 266°
2026-04-30 18:24 36.15110 -5.35296 13 ft 31 kts 267°
2026-04-30 18:24 36.15116 -5.35485 12 ft 12 kts 281°
2026-04-30 18:25 36.15103 -5.35478 12 ft 8 kts 99°
2026-04-30 18:25 36.15118 -5.35226 15 ft 19 kts 88°
2026-04-30 18:25 36.15123 -5.35060 18 ft 19 kts 87°
2026-04-30 18:26 36.15137 -5.34712 18 ft 16 kts 72°
2026-04-30 18:26 36.15210 -5.34681 18 ft 4 kts 10°
2026-04-30 18:26 36.15248 -5.34668 18 ft 6 kts
2026-04-30 18:27 36.15303 -5.34668 18 ft 0 kts 359°